カタログに戻る

XPOSAT

Lost科学LEO
NORAD 58694·PAYLOAD·🇮🇳 India

打ち上げ Jan 1, 2024 から Satish Dhawan Space Centre

Loading…

次のパス (今後24時間)

TLE

古いSource: Space-Track

元期: Jul 9, 2026, 20:20 UTC

1 58694U 24001A   26190.84730305  .00001398  00000-0  97713-4 0  9999
2 58694   5.9881  25.1227 0008638  85.4557 274.6557 14.79335705136384

AllMySatでXPOSATをリアルタイム追跡

Download on the App Store